This demonstration page uses our WeatherBlox Daily Observations layout. Learn more.

Hourly Observations for August 25, 2015

Temp ( °F °C ) Dew Point ( °F °C ) Humidity (%) Winds ( mph kmh ) Pressure ( in mb ) Visibility ( mi km ) Precip ( " mm )
12:15 am 00:15 Clear 59 15 48 9 68 68 SSE 5 7 30.09 1019 10 16.09344 0 0
12:35 am 00:35 Clear 57 14 48 9 72 72 SSE 5 7 30.09 1019 10 16.09344 0 0
12:55 am 00:55 Clear 57 14 48 9 72 72 SSE 5 7 30.09 1019 10 16.09344 0 0
1:15 am 01:15 Clear 57 14 48 9 72 72 S 6 9 30.09 1019 10 16.09344 0 0
1:35 am 01:35 Clear 57 14 48 9 72 72 S 5 7 30.09 1019 10 16.09344 0 0
1:55 am 01:55 Clear 57 14 46 8 67 67 S 5 7 30.09 1019 10 16.09344 0 0
2:15 am 02:15 Clear 55 13 48 9 77 77 S 3 6 30.12 1020 10 16.09344 0 0
2:35 am 02:35 Clear 57 14 48 9 72 72 Calm 30.09 1019 10 16.09344 0 0
2:55 am 02:55 Clear 55 13 48 9 77 77 S 5 7 30.12 1020 10 16.09344 0 0
3:15 am 03:15 Clear 57 14 48 9 72 72 SSW 6 9 30.09 1019 10 16.09344 0 0
3:35 am 03:35 Clear 57 14 46 8 67 67 SSW 6 9 30.09 1019 10 16.09344 0 0
3:55 am 03:55 Clear 57 14 46 8 67 67 S 5 7 30.09 1019 10 16.09344 0 0
4:15 am 04:15 Clear 57 14 46 8 67 67 SSW 5 7 30.09 1019 10 16.09344 0 0
4:35 am 04:35 Clear 57 14 46 8 67 67 SSW 5 7 30.09 1019 10 16.09344 0 0
4:55 am 04:55 Clear 57 14 46 8 67 67 SSW 3 6 30.09 1019 10 16.09344 0 0
5:15 am 05:15 Clear 57 14 46 8 67 67 SW 3 6 30.09 1019 10 16.09344 0 0
5:35 am 05:35 Clear 57 14 48 9 72 72 SW 5 7 30.09 1019 10 16.09344 0 0
5:55 am 05:55 Clear 55 13 48 9 77 77 Calm 30.12 1020 10 16.09344 0 0
6:15 am 06:15 Clear 57 14 48 9 72 72 Calm 30.09 1019 10 16.09344 0 0
6:35 am 06:35 Clear 52 11 48 9 88 88 NE 5 7 30.12 1020 10 16.09344 0 0
6:55 am 06:55 Clear 50 10 48 9 94 94 Calm 30.15 1021 10 16.09344 0 0
7:15 am 07:15 Sunny 50 10 48 9 94 94 Calm 30.15 1021 10 16.09344 0 0
7:35 am 07:35 Sunny 52 11 48 9 88 88 Calm 30.15 1021 10 16.09344 0 0
7:55 am 07:55 Sunny 54 12 50 10 88 88 Calm 30.15 1021 10 16.09344 0 0
8:15 am 08:15 Sunny 55 13 50 10 82 82 ESE 3 6 30.15 1021 10 16.09344 0 0
8:35 am 08:35 Sunny 57 14 52 11 82 82 ESE 6 9 30.18 1022 10 16.09344 0 0
8:55 am 08:55 Sunny 57 14 52 11 82 82 SE 3 6 30.18 1022 10 16.09344 0 0
9:15 am 09:15 Sunny 61 16 52 11 72 72 ESE 3 6 30.15 1021 10 16.09344 0 0
9:35 am 09:35 Sunny 63 17 54 12 73 73 ESE 3 6 30.15 1021 10 16.09344 0 0
9:55 am 09:55 Sunny 64 18 54 12 68 68 Calm 30.12 1020 10 16.09344 0 0
10:15 am 10:15 Sunny 66 19 54 12 64 64 Calm 30.12 1020 10 16.09344 0 0
10:35 am 10:35 Sunny 68 20 55 13 64 64 Calm 30.12 1020 10 16.09344 0 0
10:55 am 10:55 Sunny 68 20 55 13 64 64 SE 3 6 30.12 1020 10 16.09344 0 0
11:15 am 11:15 Sunny 70 21 57 14 64 64 ESE 3 6 30.12 1020 10 16.09344 0 0
11:35 am 11:35 Sunny 72 22 57 14 61 61 SSE 5 7 30.09 1019 10 16.09344 0 0
11:55 am 11:55 Sunny 73 23 57 14 57 57 ESE 5 7 30.06 1018 10 16.09344 0 0
12:15 pm 12:15 Sunny 73 23 59 15 61 61 Calm 30.06 1018 10 16.09344 0 0
12:35 pm 12:35 Sunny 77 25 59 15 54 54 S 7 11 30.03 1017 10 16.09344 0 0
12:55 pm 12:55 Sunny 77 25 59 15 54 54 ESE 6 9 30.03 1017 10 16.09344 0 0
1:15 pm 13:15 Sunny 79 26 59 15 51 51 SE 7 11 30.03 1017 10 16.09344 0 0
1:35 pm 13:35 Sunny 79 26 59 15 51 51 SE 7 11 30.03 1017 10 16.09344 0 0
1:55 pm 13:55 Sunny 81 27 59 15 48 48 SSE 9 15 30 1016 10 16.09344 0 0
2:15 pm 14:15 Sunny 81 27 59 15 48 48 S 6 9 30 1016 10 16.09344 0 0
2:35 pm 14:35 Sunny 82 28 57 14 42 42 SSE 9 15 30 1016 10 16.09344 0 0
2:55 pm 14:55 Sunny 82 28 57 14 42 42 SSE 7 11 30 1016 10 16.09344 0 0
3:15 pm 15:15 Sunny 82 28 57 14 42 42 SSE 9 15 30 1016 10 16.09344 0 0
3:35 pm 15:35 Sunny 82 28 57 14 42 42 SE 8 13 30 1016 10 16.09344 0 0
3:55 pm 15:55 Sunny 82 28 57 14 42 42 SSE 7 11 30 1016 10 16.09344 0 0
4:15 pm 16:15 Sunny 84 29 57 14 40 40 SE 7 11 29.97 1015 10 16.09344 0 0
4:35 pm 16:35 Sunny 84 29 57 14 40 40 SE 9 15 29.97 1015 10 16.09344 0 0
4:55 pm 16:55 Sunny 84 29 57 14 40 40 SSE 10 17 29.97 1015 10 16.09344 0 0
5:15 pm 17:15 Sunny 84 29 57 14 40 40 SSE 8 13 29.97 1015 10 16.09344 0 0
5:35 pm 17:35 Sunny 84 29 59 15 43 43 SSE 9 15 29.97 1015 10 16.09344 0 0
5:55 pm 17:55 Sunny 84 29 59 15 43 43 SSE 7 11 29.97 1015 10 16.09344 0 0
6:15 pm 18:15 Sunny 82 28 59 15 45 45 SE 8 13 29.94 1014 10 16.09344 0 0
6:35 pm 18:35 Sunny 82 28 61 16 48 48 SE 7 11 29.94 1014 10 16.09344 0 0
6:55 pm 18:55 Sunny 82 28 61 16 48 48 SE 6 9 29.94 1014 10 16.09344 0 0
7:15 pm 19:15 Sunny 81 27 63 17 54 54 SE 5 7 29.97 1015 10 16.09344 0 0
7:35 pm 19:35 Sunny 77 25 63 17 61 61 ESE 6 9 29.97 1015 10 16.09344 0 0
7:55 pm 19:55 Sunny 73 23 64 18 74 74 ESE 6 9 30 1016 10 16.09344 0 0
8:15 pm 20:15 Sunny 72 22 64 18 78 78 ESE 7 11 30 1016 10 16.09344 0 0
8:35 pm 20:35 Clear 70 21 63 17 78 78 ESE 8 13 30 1016 10 16.09344 0 0
8:55 pm 20:55 Clear 68 20 61 16 78 78 ESE 7 11 30.03 1017 10 16.09344 0 0
9:15 pm 21:15 Clear 66 19 61 16 83 83 ESE 7 11 30.06 1018 7 11.265408 0 0
9:35 pm 21:35 Clear 64 18 61 16 88 88 ESE 6 9 30.06 1018 10 16.09344 0 0
9:55 pm 21:55 Clear 64 18 61 16 88 88 ESE 7 11 30.06 1018 10 16.09344 0 0
10:15 pm 22:15 Clear 64 18 59 15 83 83 ESE 7 11 30.06 1018 10 16.09344 0 0
10:35 pm 22:35 Clear 64 18 59 15 83 83 ESE 7 11 30.06 1018 10 16.09344 0 0
10:55 pm 22:55 Clear 63 17 57 14 83 83 ESE 7 11 30.09 1019 10 16.09344 0 0
11:15 pm 23:15 Clear 63 17 57 14 83 83 ESE 7 11 30.09 1019 10 16.09344 0 0
11:35 pm 23:35 Clear 61 16 57 14 88 88 ESE 6 9 30.09 1019 10 16.09344 0 0
11:55 pm 23:55 Clear 61 16 57 14 88 88 ESE 7 11 30.09 1019 10 16.09344 0 0

Powered by AerisWeather